Year,Month,Day,Hour,Minute,Value (Times are PST for windspeed in km/hr)
2010,06,03,00,00,10.00
2010,06,03,00,01,10.60
2010,06,03,00,02,5.80
2010,06,03,00,03,8.00
2010,06,03,00,04,6.00
2010,06,03,00,05,6.10
2010,06,03,00,06,4.40
2010,06,03,00,07,10.40
2010,06,03,00,08,11.10
2010,06,03,00,09,12.00
2010,06,03,00,10,14.80
2010,06,03,00,11,13.40
2010,06,03,00,12,5.50
2010,06,03,00,13,11.50
2010,06,03,00,14,5.40
2010,06,03,00,15,9.40
2010,06,03,00,16,5.10
2010,06,03,00,17,4.70
2010,06,03,00,18,7.80
2010,06,03,00,19,7.20
2010,06,03,00,20,7.00
2010,06,03,00,21,5.70
2010,06,03,00,22,9.70
2010,06,03,00,23,5.50
2010,06,03,00,24,7.60
2010,06,03,00,25,8.00
2010,06,03,00,26,4.70
2010,06,03,00,27,11.10
2010,06,03,00,28,7.90
2010,06,03,00,29,6.90
2010,06,03,00,30,4.90
2010,06,03,00,31,8.70
2010,06,03,00,32,5.80
2010,06,03,00,33,5.60
2010,06,03,00,34,5.00
2010,06,03,00,35,2.50
2010,06,03,00,36,3.50
2010,06,03,00,37,4.10
2010,06,03,00,38,7.20
2010,06,03,00,39,4.00
2010,06,03,00,40,2.20
2010,06,03,00,41,2.50
2010,06,03,00,42,2.60
2010,06,03,00,43,3.40
2010,06,03,00,44,4.10
2010,06,03,00,45,3.50
2010,06,03,00,46,0.50
2010,06,03,00,47,1.60
2010,06,03,00,48,1.60
2010,06,03,00,49,1.80
2010,06,03,00,50,1.30
2010,06,03,00,51,0.30
2010,06,03,00,52,0.00
2010,06,03,00,53,0.30
2010,06,03,00,54,0.60
2010,06,03,00,55,0.10
2010,06,03,00,56,0.00
2010,06,03,00,57,0.10
2010,06,03,00,58,0.00
2010,06,03,00,59,0.00
2010,06,03,01,00,0.00
2010,06,03,01,01,0.00
2010,06,03,01,02,1.00
2010,06,03,01,03,0.60
2010,06,03,01,04,0.00
2010,06,03,01,05,3.10
2010,06,03,01,06,0.30
2010,06,03,01,07,2.40
2010,06,03,01,08,4.90
2010,06,03,01,09,7.00
2010,06,03,01,10,4.60
2010,06,03,01,11,2.50
2010,06,03,01,12,2.50
2010,06,03,01,13,0.80
2010,06,03,01,14,4.10
2010,06,03,01,15,1.40
2010,06,03,01,16,0.10
2010,06,03,01,17,1.90
2010,06,03,01,18,1.20
2010,06,03,01,19,2.70
2010,06,03,01,20,1.90
2010,06,03,01,21,1.80
2010,06,03,01,22,0.40
2010,06,03,01,23,0.70
2010,06,03,01,24,3.80
2010,06,03,01,25,1.00
2010,06,03,01,26,4.30
2010,06,03,01,27,3.90
2010,06,03,01,28,6.60
2010,06,03,01,29,2.80
2010,06,03,01,30,3.10
2010,06,03,01,31,5.20
2010,06,03,01,32,5.30
2010,06,03,01,33,4.80
2010,06,03,01,34,3.80
2010,06,03,01,35,7.90
2010,06,03,01,36,4.30
2010,06,03,01,37,2.70
2010,06,03,01,38,3.50
2010,06,03,01,39,6.00
2010,06,03,01,40,4.60
2010,06,03,01,41,3.00
2010,06,03,01,42,1.60
2010,06,03,01,43,5.70
2010,06,03,01,44,7.40
2010,06,03,01,45,6.00
2010,06,03,01,46,4.60
2010,06,03,01,47,4.70
2010,06,03,01,48,4.70
2010,06,03,01,49,3.70
2010,06,03,01,50,4.30
2010,06,03,01,51,3.90
2010,06,03,01,52,1.00
2010,06,03,01,53,2.70
2010,06,03,01,54,4.80
2010,06,03,01,55,9.00
2010,06,03,01,56,1.30
2010,06,03,01,57,3.30
2010,06,03,01,58,5.50
2010,06,03,01,59,0.20
2010,06,03,02,00,4.50
2010,06,03,02,01,4.90
2010,06,03,02,02,6.90
2010,06,03,02,03,7.10
2010,06,03,02,04,3.50
2010,06,03,02,05,3.80
2010,06,03,02,06,9.00
2010,06,03,02,07,6.40
2010,06,03,02,08,6.30
2010,06,03,02,09,6.00
2010,06,03,02,10,3.50
2010,06,03,02,11,6.60
2010,06,03,02,12,4.40
2010,06,03,02,13,4.10
2010,06,03,02,14,3.50
2010,06,03,02,15,4.70
2010,06,03,02,16,2.20
2010,06,03,02,17,4.70
2010,06,03,02,18,5.90
2010,06,03,02,19,3.10
2010,06,03,02,20,5.00
2010,06,03,02,21,4.40
2010,06,03,02,22,1.30
2010,06,03,02,23,0.30
2010,06,03,02,24,1.10
2010,06,03,02,25,3.50
2010,06,03,02,26,7.20
2010,06,03,02,27,4.80
2010,06,03,02,28,3.40
2010,06,03,02,29,7.10
2010,06,03,02,30,8.00
2010,06,03,02,31,8.00
2010,06,03,02,32,4.70
2010,06,03,02,33,6.60
2010,06,03,02,34,10.80
2010,06,03,02,35,8.80
2010,06,03,02,36,7.30
2010,06,03,02,37,6.40
2010,06,03,02,38,5.40
2010,06,03,02,39,5.40
2010,06,03,02,40,2.60
2010,06,03,02,41,8.10
2010,06,03,02,42,7.00
2010,06,03,02,43,6.60
2010,06,03,02,44,8.00
2010,06,03,02,45,3.60
2010,06,03,02,46,6.20
2010,06,03,02,47,4.10
2010,06,03,02,48,3.30
2010,06,03,02,49,3.80
2010,06,03,02,50,6.40
2010,06,03,02,51,3.10
2010,06,03,02,52,6.20
2010,06,03,02,53,3.20
2010,06,03,02,54,2.70
2010,06,03,02,55,8.70
2010,06,03,02,56,9.60
2010,06,03,02,57,7.50
2010,06,03,02,58,8.90
2010,06,03,02,59,10.20
2010,06,03,03,00,3.60
2010,06,03,03,01,4.30
2010,06,03,03,02,6.10
2010,06,03,03,03,6.70
2010,06,03,03,04,4.00
2010,06,03,03,05,5.30
2010,06,03,03,06,2.20
2010,06,03,03,07,3.30
2010,06,03,03,08,6.30
2010,06,03,03,09,3.60
2010,06,03,03,10,2.90
2010,06,03,03,11,2.20
2010,06,03,03,12,3.00
2010,06,03,03,13,2.50
2010,06,03,03,14,3.90
2010,06,03,03,15,5.80
2010,06,03,03,16,3.80
2010,06,03,03,17,6.20
2010,06,03,03,18,2.90
2010,06,03,03,19,2.80
2010,06,03,03,20,7.00
2010,06,03,03,21,1.60
2010,06,03,03,22,6.40
2010,06,03,03,23,3.40
2010,06,03,03,24,4.70
2010,06,03,03,25,2.40
2010,06,03,03,26,4.20
2010,06,03,03,27,5.60
2010,06,03,03,28,5.80
2010,06,03,03,29,3.70
2010,06,03,03,30,2.90
2010,06,03,03,31,4.20
2010,06,03,03,32,5.40
2010,06,03,03,33,1.20
2010,06,03,03,34,7.30
2010,06,03,03,35,5.20
2010,06,03,03,36,7.50
2010,06,03,03,37,5.40
2010,06,03,03,38,4.20
2010,06,03,03,39,7.80
2010,06,03,03,40,6.70
2010,06,03,03,41,7.00
2010,06,03,03,42,7.20
2010,06,03,03,43,5.00
2010,06,03,03,44,6.10
2010,06,03,03,45,7.10
2010,06,03,03,46,6.80
2010,06,03,03,47,4.60
2010,06,03,03,48,6.90
2010,06,03,03,49,6.20
2010,06,03,03,50,6.30
2010,06,03,03,51,7.80
2010,06,03,03,52,5.70
2010,06,03,03,53,5.50
2010,06,03,03,54,4.60
2010,06,03,03,55,4.30
2010,06,03,03,56,2.40
2010,06,03,03,57,3.00
2010,06,03,03,58,4.30
2010,06,03,03,59,4.30
2010,06,03,04,00,5.70
2010,06,03,04,01,5.00
2010,06,03,04,02,5.70
2010,06,03,04,03,6.00
2010,06,03,04,04,3.20
2010,06,03,04,05,1.20
2010,06,03,04,06,0.60
2010,06,03,04,07,0.30
2010,06,03,04,08,2.60
2010,06,03,04,09,1.70
2010,06,03,04,10,0.50
2010,06,03,04,11,0.00
2010,06,03,04,12,1.60
2010,06,03,04,13,4.20
2010,06,03,04,14,7.50
2010,06,03,04,15,3.60
2010,06,03,04,16,3.00
2010,06,03,04,17,3.60
2010,06,03,04,18,1.40
2010,06,03,04,19,4.80
2010,06,03,04,20,0.20
2010,06,03,04,21,0.60
2010,06,03,04,22,1.20
2010,06,03,04,23,0.00
2010,06,03,04,24,1.50
2010,06,03,04,25,4.20
2010,06,03,04,26,1.90
2010,06,03,04,27,2.50
2010,06,03,04,28,3.40
2010,06,03,04,29,2.00
2010,06,03,04,30,1.40
2010,06,03,04,31,3.70
2010,06,03,04,32,4.40
2010,06,03,04,33,3.90
2010,06,03,04,34,3.10
2010,06,03,04,35,2.70
2010,06,03,04,36,2.50
2010,06,03,04,37,0.10
2010,06,03,04,38,0.00
2010,06,03,04,39,0.10
2010,06,03,04,40,0.60
2010,06,03,04,41,1.10
2010,06,03,04,42,2.60
2010,06,03,04,43,2.00
2010,06,03,04,44,1.40
2010,06,03,04,45,0.30
2010,06,03,04,46,0.00
2010,06,03,04,47,1.70
2010,06,03,04,48,1.50
2010,06,03,04,49,2.40
2010,06,03,04,50,0.30
2010,06,03,04,51,0.80
2010,06,03,04,52,2.50
2010,06,03,04,53,4.50
2010,06,03,04,54,4.10
2010,06,03,04,55,2.70
2010,06,03,04,56,4.20
2010,06,03,04,57,2.70
2010,06,03,04,58,4.70
2010,06,03,04,59,3.30
2010,06,03,05,00,1.40
2010,06,03,05,01,2.30
2010,06,03,05,02,0.20
2010,06,03,05,03,0.20
2010,06,03,05,04,2.40
2010,06,03,05,05,1.40
2010,06,03,05,06,2.20
2010,06,03,05,07,0.60
2010,06,03,05,08,0.00
2010,06,03,05,09,0.10
2010,06,03,05,10,0.30
2010,06,03,05,11,0.00
2010,06,03,05,12,0.00
2010,06,03,05,13,0.00
2010,06,03,05,14,0.00
2010,06,03,05,15,0.20
2010,06,03,05,16,0.20
2010,06,03,05,17,0.40
2010,06,03,05,18,1.50
2010,06,03,05,19,1.20
2010,06,03,05,20,0.70
2010,06,03,05,21,1.40
2010,06,03,05,22,1.30
2010,06,03,05,23,3.20
2010,06,03,05,24,4.90
2010,06,03,05,25,3.10
2010,06,03,05,26,0.30
2010,06,03,05,27,0.30
2010,06,03,05,28,1.20
2010,06,03,05,29,0.00
2010,06,03,05,30,0.10
2010,06,03,05,31,0.00
2010,06,03,05,32,0.00
2010,06,03,05,33,0.00
2010,06,03,05,34,0.30
2010,06,03,05,35,0.30
2010,06,03,05,36,0.20
2010,06,03,05,37,0.70
2010,06,03,05,38,1.20
2010,06,03,05,39,0.30
2010,06,03,05,40,1.20
2010,06,03,05,41,0.00
2010,06,03,05,42,0.00
2010,06,03,05,43,0.00
2010,06,03,05,44,0.00
2010,06,03,05,45,0.00
2010,06,03,05,46,0.00
2010,06,03,05,47,0.00
2010,06,03,05,48,0.00
2010,06,03,05,49,0.00
2010,06,03,05,50,0.00
2010,06,03,05,51,0.00
2010,06,03,05,52,0.00
2010,06,03,05,53,0.10
2010,06,03,05,54,0.00
2010,06,03,05,55,0.00
2010,06,03,05,56,0.00
2010,06,03,05,57,0.00
2010,06,03,05,58,0.00
2010,06,03,05,59,0.00
2010,06,03,06,00,0.00
2010,06,03,06,01,0.00
2010,06,03,06,02,0.00
2010,06,03,06,03,0.00
2010,06,03,06,04,0.00
2010,06,03,06,05,0.10
2010,06,03,06,06,0.20
2010,06,03,06,07,0.20
2010,06,03,06,08,2.10
2010,06,03,06,09,0.80
2010,06,03,06,10,0.00
2010,06,03,06,11,3.30
2010,06,03,06,12,1.90
2010,06,03,06,13,0.30
2010,06,03,06,14,0.00
2010,06,03,06,15,0.80
2010,06,03,06,16,0.90
2010,06,03,06,17,0.10
2010,06,03,06,18,0.00
2010,06,03,06,19,0.20
2010,06,03,06,20,1.60
2010,06,03,06,21,1.80
2010,06,03,06,22,2.00
2010,06,03,06,23,0.20
2010,06,03,06,24,0.00
2010,06,03,06,25,0.00
2010,06,03,06,26,0.00
2010,06,03,06,27,0.60
2010,06,03,06,28,0.10
2010,06,03,06,29,0.20
2010,06,03,06,30,0.00
2010,06,03,06,31,0.00
2010,06,03,06,32,0.00
2010,06,03,06,33,0.00
2010,06,03,06,34,0.00
2010,06,03,06,35,0.20
2010,06,03,06,36,0.00
2010,06,03,06,37,0.00
2010,06,03,06,38,0.10
2010,06,03,06,39,0.40
2010,06,03,06,40,1.60
2010,06,03,06,41,0.30
2010,06,03,06,42,0.00
2010,06,03,06,43,0.00
2010,06,03,06,44,0.00
2010,06,03,06,45,0.00
2010,06,03,06,46,0.00
2010,06,03,06,47,0.00
2010,06,03,06,48,0.20
2010,06,03,06,49,0.00
2010,06,03,06,50,0.00
2010,06,03,06,51,0.60
2010,06,03,06,52,0.80
2010,06,03,06,53,0.10
2010,06,03,06,54,0.00
2010,06,03,06,55,0.00
2010,06,03,06,56,0.00
2010,06,03,06,57,0.00
2010,06,03,06,58,0.00
2010,06,03,06,59,0.00
2010,06,03,07,00,0.80
2010,06,03,07,01,0.10
2010,06,03,07,02,0.10
2010,06,03,07,03,0.20
2010,06,03,07,04,0.00
2010,06,03,07,05,0.00
2010,06,03,07,06,0.00
2010,06,03,07,07,0.00
2010,06,03,07,08,0.10
2010,06,03,07,09,0.00
2010,06,03,07,10,0.00
2010,06,03,07,11,0.20
2010,06,03,07,12,0.00
2010,06,03,07,13,0.10
2010,06,03,07,14,0.20
2010,06,03,07,15,0.10
2010,06,03,07,16,0.10
2010,06,03,07,17,0.70
2010,06,03,07,18,1.30
2010,06,03,07,19,4.10
2010,06,03,07,20,3.80
2010,06,03,07,21,2.30
2010,06,03,07,22,0.00
2010,06,03,07,23,0.00
2010,06,03,07,24,0.00
2010,06,03,07,25,0.00
2010,06,03,07,26,0.50
2010,06,03,07,27,0.60
2010,06,03,07,28,1.00
2010,06,03,07,29,0.00
2010,06,03,07,30,0.00
2010,06,03,07,31,3.80
2010,06,03,07,32,4.50
2010,06,03,07,33,0.20
2010,06,03,07,34,0.30
2010,06,03,07,35,0.00
2010,06,03,07,36,2.20
2010,06,03,07,37,0.30
2010,06,03,07,38,3.30
2010,06,03,07,39,2.20
2010,06,03,07,40,3.80
2010,06,03,07,41,1.60
2010,06,03,07,42,2.30
2010,06,03,07,43,2.60
2010,06,03,07,44,0.00
2010,06,03,07,45,0.30
2010,06,03,07,46,1.20
2010,06,03,07,47,3.10
2010,06,03,07,48,3.70
2010,06,03,07,49,3.50
2010,06,03,07,50,4.10
2010,06,03,07,51,4.60
2010,06,03,07,52,5.10
2010,06,03,07,53,1.30
2010,06,03,07,54,2.10
2010,06,03,07,55,3.80
2010,06,03,07,56,1.90
2010,06,03,07,57,0.40
2010,06,03,07,58,2.80
2010,06,03,07,59,3.90
2010,06,03,08,00,2.60
2010,06,03,08,01,3.30
2010,06,03,08,02,3.40
2010,06,03,08,03,3.40
2010,06,03,08,04,3.60
2010,06,03,08,05,0.90
2010,06,03,08,06,3.10
2010,06,03,08,07,3.90
2010,06,03,08,08,0.40
2010,06,03,08,09,4.80
2010,06,03,08,10,3.60
2010,06,03,08,11,5.20
2010,06,03,08,12,2.80
2010,06,03,08,13,3.90
2010,06,03,08,14,4.80
2010,06,03,08,15,5.80
2010,06,03,08,16,5.20
2010,06,03,08,17,4.90
2010,06,03,08,18,4.30
2010,06,03,08,19,3.40
2010,06,03,08,20,1.00
2010,06,03,08,21,0.60
2010,06,03,08,22,0.30
2010,06,03,08,23,0.10
2010,06,03,08,24,0.40
2010,06,03,08,25,4.20
2010,06,03,08,26,0.30
2010,06,03,08,27,1.40
2010,06,03,08,28,2.60
2010,06,03,08,29,0.30
2010,06,03,08,30,1.40
2010,06,03,08,31,4.60
2010,06,03,08,32,3.50
2010,06,03,08,33,5.70
2010,06,03,08,34,11.30
2010,06,03,08,35,9.70
2010,06,03,08,36,9.80
2010,06,03,08,37,8.90
2010,06,03,08,38,7.90
2010,06,03,08,39,8.30
2010,06,03,08,40,8.70
2010,06,03,08,41,6.40
2010,06,03,08,42,4.00
2010,06,03,08,43,4.10
2010,06,03,08,44,4.90
2010,06,03,08,45,6.00
2010,06,03,08,46,6.10
2010,06,03,08,47,8.10
2010,06,03,08,48,13.10
2010,06,03,08,49,9.60
2010,06,03,08,50,6.60
2010,06,03,08,51,8.00
2010,06,03,08,52,6.80
2010,06,03,08,53,7.10
2010,06,03,08,54,8.90
2010,06,03,08,55,7.60
2010,06,03,08,56,6.70
2010,06,03,08,57,6.30
2010,06,03,08,58,4.90
2010,06,03,08,59,10.50
2010,06,03,09,00,7.00
2010,06,03,09,01,10.20
2010,06,03,09,02,8.30
2010,06,03,09,03,8.60
2010,06,03,09,04,5.40
2010,06,03,09,05,9.30
2010,06,03,09,06,7.90
2010,06,03,09,07,7.70
2010,06,03,09,08,8.60
2010,06,03,09,09,6.80
2010,06,03,09,10,8.10
2010,06,03,09,11,8.40
2010,06,03,09,12,11.60
2010,06,03,09,13,10.20
2010,06,03,09,14,6.80
2010,06,03,09,15,9.70
2010,06,03,09,16,11.80
2010,06,03,09,17,9.70
2010,06,03,09,18,7.90
2010,06,03,09,19,5.40
2010,06,03,09,20,10.70
2010,06,03,09,21,13.60
2010,06,03,09,22,9.20
2010,06,03,09,23,8.10
2010,06,03,09,24,7.70
2010,06,03,09,25,9.20
2010,06,03,09,26,10.80
2010,06,03,09,27,8.50
2010,06,03,09,28,9.60
2010,06,03,09,29,5.20
2010,06,03,09,30,8.30
2010,06,03,09,31,12.00
2010,06,03,09,32,6.00
2010,06,03,09,33,6.80
2010,06,03,09,34,8.60
2010,06,03,09,35,8.20
2010,06,03,09,36,8.50
2010,06,03,09,37,11.80
2010,06,03,09,38,9.70
2010,06,03,09,39,11.70
2010,06,03,09,40,7.20
2010,06,03,09,41,8.00
2010,06,03,09,42,9.70
2010,06,03,09,43,12.10
2010,06,03,09,44,10.70
2010,06,03,09,45,10.90
2010,06,03,09,46,8.10
2010,06,03,09,47,9.10
2010,06,03,09,48,10.90
2010,06,03,09,49,13.50
2010,06,03,09,50,11.30
2010,06,03,09,51,8.60
2010,06,03,09,52,11.50
2010,06,03,09,53,10.90
2010,06,03,09,54,7.10
2010,06,03,09,55,11.00
2010,06,03,09,56,7.90
2010,06,03,09,57,10.00
2010,06,03,09,58,5.30
2010,06,03,09,59,8.10
2010,06,03,10,00,9.70
2010,06,03,10,01,6.40
2010,06,03,10,02,9.60
2010,06,03,10,03,12.40
2010,06,03,10,04,9.30
2010,06,03,10,05,10.10
2010,06,03,10,06,10.80
2010,06,03,10,07,9.30
2010,06,03,10,08,4.40
2010,06,03,10,09,5.40
2010,06,03,10,10,4.70
2010,06,03,10,11,5.30
2010,06,03,10,12,11.90
2010,06,03,10,13,7.40
2010,06,03,10,14,9.70
2010,06,03,10,15,11.90
2010,06,03,10,16,8.70
2010,06,03,10,17,11.30
2010,06,03,10,18,9.20
2010,06,03,10,19,13.10
2010,06,03,10,20,13.60
2010,06,03,10,21,11.30
2010,06,03,10,22,9.80
2010,06,03,10,23,12.80
2010,06,03,10,24,13.80
2010,06,03,10,25,8.80
2010,06,03,10,26,13.40
2010,06,03,10,27,11.80
2010,06,03,10,28,10.40
2010,06,03,10,29,9.20
2010,06,03,10,30,15.10
2010,06,03,10,31,9.70
2010,06,03,10,32,12.50
2010,06,03,10,33,5.20
2010,06,03,10,34,9.70
2010,06,03,10,35,8.40
2010,06,03,10,36,7.70
2010,06,03,10,37,6.60
2010,06,03,10,38,2.70
2010,06,03,10,39,11.30
2010,06,03,10,40,10.80
2010,06,03,10,41,9.90
2010,06,03,10,42,8.00
2010,06,03,10,43,4.40
2010,06,03,10,44,7.30
2010,06,03,10,45,5.70
2010,06,03,10,46,10.30
2010,06,03,10,47,8.90
2010,06,03,10,48,4.90
2010,06,03,10,49,3.10
2010,06,03,10,50,6.00
2010,06,03,10,51,13.70
2010,06,03,10,52,15.50
2010,06,03,10,53,10.30
2010,06,03,10,54,11.40
2010,06,03,10,55,7.00
2010,06,03,10,56,10.50
2010,06,03,10,57,11.70
2010,06,03,10,58,10.70
2010,06,03,10,59,12.80
2010,06,03,11,00,11.10
2010,06,03,11,01,12.10
2010,06,03,11,02,12.30
2010,06,03,11,03,10.60
2010,06,03,11,04,8.90
2010,06,03,11,05,9.20
2010,06,03,11,06,6.90
2010,06,03,11,07,5.80
2010,06,03,11,08,3.60
2010,06,03,11,09,7.80
2010,06,03,11,10,7.30
2010,06,03,11,11,5.90
2010,06,03,11,12,7.80
2010,06,03,11,13,9.10
2010,06,03,11,14,9.20
2010,06,03,11,15,10.00
2010,06,03,11,16,11.00
2010,06,03,11,17,9.60
2010,06,03,11,18,13.60
2010,06,03,11,19,14.00
2010,06,03,11,20,13.70
2010,06,03,11,21,10.50
2010,06,03,11,22,11.40
2010,06,03,11,23,11.90
2010,06,03,11,24,13.30
2010,06,03,11,25,13.00
2010,06,03,11,26,8.10
2010,06,03,11,27,16.80
2010,06,03,11,28,14.10
2010,06,03,11,29,12.20
2010,06,03,11,30,12.60
2010,06,03,11,31,3.70
2010,06,03,11,32,9.60
2010,06,03,11,33,4.70
2010,06,03,11,34,5.10
2010,06,03,11,35,9.20
2010,06,03,11,36,7.70
2010,06,03,11,37,9.30
2010,06,03,11,38,9.50
2010,06,03,11,39,11.30
2010,06,03,11,40,12.60
2010,06,03,11,41,12.50
2010,06,03,11,42,11.70
2010,06,03,11,43,9.90
2010,06,03,11,44,7.90
2010,06,03,11,45,9.50
2010,06,03,11,46,11.50
2010,06,03,11,47,11.60
2010,06,03,11,48,13.40
2010,06,03,11,49,9.40
2010,06,03,11,50,11.50
2010,06,03,11,51,7.70
2010,06,03,11,52,9.10
2010,06,03,11,53,14.10
2010,06,03,11,54,12.50
2010,06,03,11,55,11.60
2010,06,03,11,56,15.50
2010,06,03,11,57,9.70
2010,06,03,11,58,10.80
2010,06,03,11,59,9.70
2010,06,03,12,00,10.90
2010,06,03,12,01,10.20
2010,06,03,12,02,9.70
2010,06,03,12,03,8.10
2010,06,03,12,04,9.40
2010,06,03,12,05,7.90
2010,06,03,12,06,12.20
2010,06,03,12,07,6.60
2010,06,03,12,08,9.70
2010,06,03,12,09,9.70
2010,06,03,12,10,6.00
2010,06,03,12,11,8.00
2010,06,03,12,12,6.00
2010,06,03,12,13,8.50
2010,06,03,12,14,7.50
2010,06,03,12,15,9.00
2010,06,03,12,16,10.20
2010,06,03,12,17,9.20
2010,06,03,12,18,5.20
2010,06,03,12,19,6.10
2010,06,03,12,20,4.90
2010,06,03,12,21,7.70
2010,06,03,12,22,6.90
2010,06,03,12,23,8.10
2010,06,03,12,24,9.10
2010,06,03,12,25,6.70
2010,06,03,12,26,8.00
2010,06,03,12,27,6.30
2010,06,03,12,28,7.40
2010,06,03,12,29,10.90
2010,06,03,12,30,7.90
2010,06,03,12,31,8.00
2010,06,03,12,32,8.30
2010,06,03,12,33,4.70
2010,06,03,12,34,4.90
2010,06,03,12,35,7.70
2010,06,03,12,36,9.70
2010,06,03,12,37,8.40
2010,06,03,12,38,10.10
2010,06,03,12,39,8.50
2010,06,03,12,40,7.70
2010,06,03,12,41,8.20
2010,06,03,12,42,9.70
2010,06,03,12,43,10.80
2010,06,03,12,44,3.30
2010,06,03,12,45,3.40
2010,06,03,12,46,5.20
2010,06,03,12,47,5.80
2010,06,03,12,48,8.70
2010,06,03,12,49,7.20
2010,06,03,12,50,6.40
2010,06,03,12,51,6.10
2010,06,03,12,52,1.70
2010,06,03,12,53,3.30
2010,06,03,12,54,8.80
2010,06,03,12,55,8.90
2010,06,03,12,56,11.00
2010,06,03,12,57,5.40
2010,06,03,12,58,6.90
2010,06,03,12,59,7.40
2010,06,03,13,00,7.00
2010,06,03,13,01,9.60
2010,06,03,13,02,8.00
2010,06,03,13,03,5.90
2010,06,03,13,04,6.90
2010,06,03,13,05,9.50
2010,06,03,13,06,11.60
2010,06,03,13,07,6.40
2010,06,03,13,08,6.60
2010,06,03,13,09,8.20
2010,06,03,13,10,8.10
2010,06,03,13,11,7.60
2010,06,03,13,12,11.40
2010,06,03,13,13,11.10
2010,06,03,13,14,7.40
2010,06,03,13,15,6.50
2010,06,03,13,16,6.90
2010,06,03,13,17,11.50
2010,06,03,13,18,8.00
2010,06,03,13,19,3.70
2010,06,03,13,20,4.90
2010,06,03,13,21,5.30
2010,06,03,13,22,2.70
2010,06,03,13,23,4.70
2010,06,03,13,24,11.00
2010,06,03,13,25,6.40
2010,06,03,13,26,9.20
2010,06,03,13,27,6.00
2010,06,03,13,28,6.80
2010,06,03,13,29,7.00
2010,06,03,13,30,5.40
2010,06,03,13,31,5.80
2010,06,03,13,32,2.70
2010,06,03,13,33,5.30
2010,06,03,13,34,3.20
2010,06,03,13,35,5.80
2010,06,03,13,36,3.50
2010,06,03,13,37,6.00
2010,06,03,13,38,6.60
2010,06,03,13,39,3.10
2010,06,03,13,40,3.50
2010,06,03,13,41,8.70
2010,06,03,13,42,8.10
2010,06,03,13,43,7.70
2010,06,03,13,44,4.30
2010,06,03,13,45,3.90
2010,06,03,13,46,4.50
2010,06,03,13,47,6.90
2010,06,03,13,48,5.90
2010,06,03,13,49,7.80
2010,06,03,13,50,5.00
2010,06,03,13,51,4.90
2010,06,03,13,52,6.30
2010,06,03,13,53,6.70
2010,06,03,13,54,11.90
2010,06,03,13,55,7.00
2010,06,03,13,56,6.50
2010,06,03,13,57,6.40
2010,06,03,13,58,11.90
2010,06,03,13,59,12.30
2010,06,03,14,00,10.80
2010,06,03,14,01,12.10
2010,06,03,14,02,9.70
2010,06,03,14,03,15.10
2010,06,03,14,04,6.80
2010,06,03,14,05,7.10
2010,06,03,14,06,11.10
2010,06,03,14,07,10.30
2010,06,03,14,08,15.70
2010,06,03,14,09,13.60
2010,06,03,14,10,12.10
2010,06,03,14,11,13.60
2010,06,03,14,12,11.80
2010,06,03,14,13,11.50
2010,06,03,14,14,11.10
2010,06,03,14,15,11.90
2010,06,03,14,16,8.20
2010,06,03,14,17,10.30
2010,06,03,14,18,7.60
2010,06,03,14,19,6.30
2010,06,03,14,20,7.50
2010,06,03,14,21,9.00
2010,06,03,14,22,7.60
2010,06,03,14,23,6.90
2010,06,03,14,24,6.50
2010,06,03,14,25,6.80
2010,06,03,14,26,7.30
2010,06,03,14,27,12.80
2010,06,03,14,28,7.30
2010,06,03,14,29,7.30
2010,06,03,14,30,5.20
2010,06,03,14,31,5.80
2010,06,03,14,32,9.70
2010,06,03,14,33,5.00
2010,06,03,14,34,4.20
2010,06,03,14,35,8.60
2010,06,03,14,36,7.60
2010,06,03,14,37,9.00
2010,06,03,14,38,11.00
2010,06,03,14,39,13.50
2010,06,03,14,40,8.50
2010,06,03,14,41,11.70
2010,06,03,14,42,9.60
2010,06,03,14,43,13.50
2010,06,03,14,44,10.80
2010,06,03,14,45,15.00
2010,06,03,14,46,12.00
2010,06,03,14,47,12.80
2010,06,03,14,48,9.40
2010,06,03,14,49,4.60
2010,06,03,14,50,7.10
2010,06,03,14,51,14.30
2010,06,03,14,52,9.30
2010,06,03,14,53,8.00
2010,06,03,14,54,8.50
2010,06,03,14,55,11.20
2010,06,03,14,56,7.70
2010,06,03,14,57,11.80
2010,06,03,14,58,5.50
2010,06,03,14,59,9.90
2010,06,03,15,00,6.70
2010,06,03,15,01,5.80
2010,06,03,15,02,6.40
2010,06,03,15,03,5.00
2010,06,03,15,04,8.60
2010,06,03,15,05,5.80
2010,06,03,15,06,7.40
2010,06,03,15,07,10.50
2010,06,03,15,08,6.90
2010,06,03,15,09,7.40
2010,06,03,15,10,8.40
2010,06,03,15,11,8.30
2010,06,03,15,12,9.80
2010,06,03,15,13,8.90
2010,06,03,15,14,7.60
2010,06,03,15,15,9.00
2010,06,03,15,16,15.50
2010,06,03,15,17,14.80
2010,06,03,15,18,9.20
2010,06,03,15,19,8.00
2010,06,03,15,20,11.50
2010,06,03,15,21,8.50
2010,06,03,15,22,10.60
2010,06,03,15,23,6.90
2010,06,03,15,24,10.80
2010,06,03,15,25,9.70
2010,06,03,15,26,12.20
2010,06,03,15,27,6.40
2010,06,03,15,28,7.50
2010,06,03,15,29,7.70
2010,06,03,15,30,5.20
2010,06,03,15,31,7.90
2010,06,03,15,32,3.40
2010,06,03,15,33,5.10
2010,06,03,15,34,13.40
2010,06,03,15,35,6.90
2010,06,03,15,36,5.70
2010,06,03,15,37,2.90
2010,06,03,15,38,2.70
2010,06,03,15,39,6.30
2010,06,03,15,40,2.70
2010,06,03,15,41,1.20
2010,06,03,15,42,1.90
2010,06,03,15,43,4.10
2010,06,03,15,44,7.40
2010,06,03,15,45,6.50
2010,06,03,15,46,7.90
2010,06,03,15,47,15.10
2010,06,03,15,48,10.20
2010,06,03,15,49,11.60
2010,06,03,15,50,13.10
2010,06,03,15,51,8.60
2010,06,03,15,52,9.70
2010,06,03,15,53,10.20
2010,06,03,15,54,9.30
2010,06,03,15,55,5.00
2010,06,03,15,56,7.90
2010,06,03,15,57,6.30
2010,06,03,15,58,8.40
2010,06,03,15,59,6.90
2010,06,03,16,00,0.20
2010,06,03,16,01,3.90
2010,06,03,16,02,2.70
2010,06,03,16,03,0.30
2010,06,03,16,04,0.80
2010,06,03,16,05,1.90
2010,06,03,16,06,3.90
2010,06,03,16,07,9.30
2010,06,03,16,08,14.30
2010,06,03,16,09,5.10
2010,06,03,16,10,2.60
2010,06,03,16,11,3.50
2010,06,03,16,12,1.20
2010,06,03,16,13,1.00
2010,06,03,16,14,2.70
2010,06,03,16,15,6.60
2010,06,03,16,16,7.40
2010,06,03,16,17,2.20
2010,06,03,16,18,0.50
2010,06,03,16,19,3.80
2010,06,03,16,20,2.90
2010,06,03,16,21,8.20
2010,06,03,16,22,4.90
2010,06,03,16,23,0.50
2010,06,03,16,24,1.10
2010,06,03,16,25,3.40
2010,06,03,16,26,6.40
2010,06,03,16,27,17.00
2010,06,03,16,28,15.70
2010,06,03,16,29,13.50
2010,06,03,16,30,9.20
2010,06,03,16,31,7.70
2010,06,03,16,32,10.00
2010,06,03,16,33,6.50
2010,06,03,16,34,4.80
2010,06,03,16,35,10.30
2010,06,03,16,36,5.80
2010,06,03,16,37,12.50
2010,06,03,16,38,9.50
2010,06,03,16,39,5.00
2010,06,03,16,40,6.00
2010,06,03,16,41,7.00
2010,06,03,16,42,5.60
2010,06,03,16,43,12.20
2010,06,03,16,44,9.60
2010,06,03,16,45,8.40
2010,06,03,16,46,3.10
2010,06,03,16,47,2.90
2010,06,03,16,48,10.20
2010,06,03,16,49,10.60
2010,06,03,16,50,9.10
2010,06,03,16,51,9.70
2010,06,03,16,52,6.90
2010,06,03,16,53,6.40
2010,06,03,16,54,10.80
2010,06,03,16,55,7.30
2010,06,03,16,56,6.40
2010,06,03,16,57,7.50
2010,06,03,16,58,4.70
2010,06,03,16,59,8.60
2010,06,03,17,00,6.90
2010,06,03,17,01,2.50
2010,06,03,17,02,4.10
2010,06,03,17,03,9.00
2010,06,03,17,04,8.70
2010,06,03,17,05,5.90
2010,06,03,17,06,7.40
2010,06,03,17,07,7.00
2010,06,03,17,08,3.30
2010,06,03,17,09,5.60
2010,06,03,17,10,13.90
2010,06,03,17,11,9.10
2010,06,03,17,12,6.80
2010,06,03,17,13,7.80
2010,06,03,17,14,3.20
2010,06,03,17,15,6.50
2010,06,03,17,16,6.90
2010,06,03,17,17,5.60
2010,06,03,17,18,6.50
2010,06,03,17,19,10.00
2010,06,03,17,20,8.20
2010,06,03,17,21,7.70
2010,06,03,17,22,5.30
2010,06,03,17,23,6.50
2010,06,03,17,24,6.20
2010,06,03,17,25,8.40
2010,06,03,17,26,8.50
2010,06,03,17,27,5.80
2010,06,03,17,28,10.10
2010,06,03,17,29,6.40
2010,06,03,17,30,7.50
2010,06,03,17,31,8.00
2010,06,03,17,32,5.30
2010,06,03,17,33,2.70
2010,06,03,17,34,2.70
2010,06,03,17,35,2.00
2010,06,03,17,36,4.80
2010,06,03,17,37,4.20
2010,06,03,17,38,6.90
2010,06,03,17,39,5.90
2010,06,03,17,40,8.70
2010,06,03,17,41,7.10
2010,06,03,17,42,10.30
2010,06,03,17,43,9.00
2010,06,03,17,44,7.60
2010,06,03,17,45,9.70
2010,06,03,17,46,6.50
2010,06,03,17,47,7.20
2010,06,03,17,48,5.30
2010,06,03,17,49,4.70
2010,06,03,17,50,6.20
2010,06,03,17,51,7.90
2010,06,03,17,52,6.20
2010,06,03,17,53,11.10
2010,06,03,17,54,10.30
2010,06,03,17,55,8.00
2010,06,03,17,56,8.70
2010,06,03,17,57,7.50
2010,06,03,17,58,6.90
2010,06,03,17,59,7.60